This demonstration page uses our WeatherBlox Daily Observations layout. Learn more.

Left ArrowRight Arrow

Hourly Observations for January 24, 2023

Temp ( °F °C ) Dew Point ( °F °C ) Humidity (%) Winds ( mph kmh ) Pressure ( in mb ) Visibility ( mi km ) Precip ( " mm )
12:53 am 00:53 Mostly Cloudy 30 -1 25 -4 80 80 undefined N/A 30.26 1025 10 16 0.00 0.00
1:53 am 01:53 Clear 30 -1.1 25 -3.9 81 81 Calm 30.20 1023 10 16 0.00 0.00
2:53 am 02:53 Partly Cloudy 28 -2 25 -4 86 86 Calm 30.25 1024 10 16 0.00 0.00
3:53 am 03:53 Partly Cloudy 27 -3 23 -5 86 86 Calm 30.25 1025 10 16 0.00 0.00
4:53 am 04:53 Mostly Cloudy 29 -1.7 26 -3.3 89 89 NE 7 11 30.15 1021 9 14 0.00 0.00
5:53 am 05:53 Cloudy 30 -1 27 -3 86 86 Calm 30.20 1023 10 16 0.00 0.00
6:53 am 06:53 Cloudy 30 -1 27 -3 86 86 E 3 6 30.22 1023 10 16 0.00 0.00
7:53 am 07:53 Cloudy 32 0 27 -3 80 80 SE 3 6 30.22 1023 10 16 0.00 0.00
8:53 am 08:53 Cloudy 32 0 28 -2 86 86 SE 3 6 30.22 1024 10 16 0.00 0.00
9:53 am 09:53 Cloudy 32 0 30 -1 93 93 SE 5 7 30.24 1024 10 16 0.00 0.00
10:53 am 10:53 Cloudy with Light Snow 32 0 30 -1 93 93 SE 6 9 30.22 1024 9 14 0.00 0.00
11:06 am 11:06 Cloudy with Light Snow 33 0.6 30 -1.1 88 88 SSW 6 9 30.21 1023 2 3 0.01 0.13
11:19 am 11:19 Cloudy with Light Snow 33 0.6 31 -0.6 92 92 SSW 5 7 30.20 1023 1 2 0.01 0.13
11:26 am 11:26 Cloudy with Light Snow 33 0.6 31 -0.6 92 92 S 3 6 30.19 1022 1 1 0.01 0.13
11:45 am 11:45 Cloudy with Snow 32 0 32 0 100 100 SSW 5 7 30.20 1023 1 1 0.00 0.00
11:51 am 11:51 Cloudy with Light Snow 32 0 30 -1 93 93 S 3 6 30.19 1022 1 1 0.02 0.51
11:53 am 11:53 Cloudy with Snow 32 0 30 -1 93 93 SSW 3 6 30.20 1023 1 1 0.00 0.00
12:36 pm 12:36 Cloudy with Light Snow 32 0 31 -0.6 96 96 SW 5 7 30.15 1021 1 1 0.04 1.02
12:53 pm 12:53 Cloudy with Light Snow 32 0 30 -1 93 93 SW 3 6 30.15 1021 1 1 0.00 0.00
1:15 pm 13:15 Cloudy with Light Snow 33 0.6 32 0 96 96 Calm 30.14 1021 1 1 0.01 0.25
1:53 pm 13:53 Cloudy with Light Snow 34 1 32 0 93 93 Calm 30.18 1022 1 1 0.00 0.00
2:16 pm 14:16 Cloudy with Light Snow 34 1.1 32 0 92 92 NW 3 6 30.11 1020 1 1 0.01 0.13
2:30 pm 14:30 Cloudy with Light Snow 34 1.1 33 0.6 96 96 NW 3 6 30.11 1020 6 10 0.01 0.13
2:53 pm 14:53 Cloudy with Light Wintry Mix 35 1.7 33 0.6 92 92 NNW 6 9 30.08 1019 6 10 0.01 0.13
3:48 pm 15:48 Cloudy with Light Rain 36 2 34 1 93 93 N 7 11 30.10 1019 5 8 0.02 0.51
3:53 pm 15:53 Cloudy with Light Rain 35 1.7 33 0.6 92 92 N 6 9 30.07 1018 5 8 0.02 0.51
4:53 pm 16:53 Cloudy with Light Rain 35 1.7 33 0.6 92 92 N 7 11 30.05 1018 7 11 0.01 0.25
5:43 pm 17:43 Cloudy with Light Wintry Mix 35 1.7 33 0.6 92 92 N 6 9 30.08 1019 7 11 0.01 0.25
5:53 pm 17:53 Cloudy with Light Wintry Mix 35 1.7 33 0.6 92 92 N 5 7 30.05 1018 7 11 0.01 0.25
6:53 pm 18:53 Cloudy with Light Rain 35 1.7 33 0.6 92 92 N 8 13 30.04 1017 8 13 0.02 0.51
7:53 pm 19:53 Cloudy with Light Wintry Mix 34 1.1 33 0.6 96 96 NNW 6 9 30.02 1017 6 10 0.01 0.13
8:28 pm 20:28 Cloudy with Light Wintry Mix 34 1.1 32 0 92 92 NW 3 6 30.05 1018 3 5 0.01 0.25
8:53 pm 20:53 Cloudy with Light Wintry Mix 33 0.6 32 0 96 96 NW 5 7 30.01 1016 3 5 0.02 0.51
9:03 pm 21:03 Cloudy with Light Snow 33 0.6 32 0 96 96 NW 5 7 30.04 1017 2 3 0.01 0.13
9:53 pm 21:53 Cloudy with Light Snow 33 0.6 31 -0.6 92 92 NW 8 13 30.01 1016 2 3 0.02 0.51
10:53 pm 22:53 Cloudy with Light Snow 32 0 30 -1.1 92 92 NNW 10 17 30.00 1016 2 3 0.01 0.25
11:53 pm 23:53 Cloudy with Light Snow 32 0 30 -1.1 92 92 NNW 13 20 29.99 1016 2 3 0.03 0.76

Powered by AerisWeather